Flag for China Weather past 2 weeks in Fushun, Liaoning, China

14 °F


Feels Like: 5 °F
Forecast: 20 / 39 °F
Wind: 6 mph from Northeast

Location: Shenyang / Taoxian

Current Time: Nov 30, 2015 at 8:46:35 PM

Latest Report: Nov 30, 2015 at 8:00 PM

Visibility: 1 mi

Pressure: 30.27 "Hg

Humidity: 92%

Dew point: 12 °F

Location of FushunLocation

Historic Weather in Fushun — Graph


Fushun temperature yesterday

Maximum temperature yesterday: 28 °F (at 10:30 AM)
Minimum temperature yesterday: 14 °F (at 12:00 AM)
Average temperature yesterday: 22 °F

Past Weeks' High & Low Weather Summary

High39 °F (Nov 15, 7:30 PM)100% (Nov 29, 7:30 AM)30.80 "Hg (Nov 29, 7:30 AM)
Low0 °F (Nov 27, 2:00 AM)33% (Nov 18, 2:30 PM)30.07 "Hg (Nov 16, 2:30 PM)
Average21 °F63%30.41 "Hg
* Reported Nov 15 7:00 PM — Nov 30 7:30 PM, Fushun, Weather by CustomWeather, © 2015

Note: Actual official high and low records may vary slightly from our data, if they occured in-between our weather recording intervals... More about our weather records


Fushun weather history for previous 24 hours

Time TempWeatherWind HumidityBarometerVisibility
7:30 PM
Mon, Nov 30
16 °FClear.3 mph86%30.27 "Hg2 mi
7:00 PM18 °FClear.1 mph86%30.27 "Hg2 mi
6:30 PM18 °FClear.1 mph86%30.27 "Hg4 mi
6:00 PM19 °FClear.3 mph86%30.27 "Hg4 mi
5:30 PM19 °FClear.3 mph79%30.27 "Hg4 mi
5:00 PM21 °FClear.6 mph80%30.27 "Hg4 mi
4:30 PM21 °FClear.6 mph80%30.27 "Hg4 mi
4:00 PM23 °FClear.6 mph74%30.27 "Hg4 mi
3:00 PM25 °FClear.3 mph74%30.30 "Hg4 mi
2:30 PM27 °FClear.3 mph69%30.30 "Hg4 mi
2:00 PM27 °FClear.1 mph69%30.30 "Hg4 mi
1:30 PM27 °FClear.1 mph69%30.30 "Hg4 mi
1:00 PM27 °FSunny.1 mph69%30.30 "Hg10 mi
12:30 PM27 °FSunny.1 mph69%30.33 "Hg10 mi
11:30 AM25 °FPartly sunny.1 mph74%30.33 "Hg4 mi
11:00 AM23 °FPartly sunny.3 mph80%30.36 "Hg4 mi
10:30 AM23 °FPartly sunny.3 mph80%30.36 "Hg4 mi
10:00 AM23 °FPartly sunny.1 mph74%30.36 "Hg4 mi
9:30 AM21 °FPartly sunny.3 mph80%30.36 "Hg4 mi
8:30 AM21 °FIce fog.1 mph86%30.36 "Hg2 mi
8:00 AM19 °FIce fog.No wind93%30.36 "Hg2 mi
7:30 AM19 °FIce fog.No wind93%30.36 "Hg2 mi
7:00 AM19 °FIce fog.1 mph86%30.36 "Hg2 mi
6:30 AM19 °FIce fog.1 mph93%30.36 "Hg2 mi
6:00 AM19 °FIce fog.1 mph86%30.33 "Hg3 mi
5:30 AM19 °FIce fog.1 mph93%30.33 "Hg3 mi
5:00 AM19 °FIce fog.1 mph93%30.33 "Hg3 mi
4:30 AM19 °FIce fog.1 mph93%30.33 "Hg3 mi
4:00 AM19 °FOvercast.1 mph93%30.33 "Hg4 mi
3:30 AM21 °FOvercast.1 mph86%30.36 "Hg4 mi
3:00 AM21 °FOvercast.No wind86%30.36 "Hg4 mi
2:30 AM21 °FOvercast.1 mph86%30.36 "Hg4 mi
2:00 AM21 °FOvercast.No wind86%30.33 "Hg4 mi
1:30 AM21 °FOvercast.1 mph86%30.33 "Hg4 mi
1:00 AM21 °FOvercast.1 mph86%30.33 "Hg4 mi
12:30 AM21 °FOvercast.1 mph86%30.33 "Hg4 mi
12:00 AM21 °FOvercast.1 mph86%30.33 "Hg4 mi
11:30 PM
Sun, Nov 29
21 °FOvercast.3 mph86%30.33 "Hg4 mi
11:00 PM21 °FOvercast.1 mph86%30.33 "Hg4 mi
10:30 PM21 °FOvercast.1 mph86%30.33 "Hg4 mi
10:00 PM21 °FOvercast.3 mph86%30.33 "Hg4 mi
9:30 PM21 °FIce fog.3 mph86%30.33 "Hg3 mi
9:00 PM23 °FIce fog.3 mph86%30.33 "Hg3 mi
8:30 PM23 °FIce fog.6 mph86%30.33 "Hg3 mi
8:00 PM23 °FIce fog.3 mph86%30.30 "Hg2 mi
Weather by CustomWeather, © 2015

See weather overviewHow to use our weather pages